Regional Weather Roundup
Issued by NWS Cleveland, OH

Home | Current Version | Previous Version | Graphics & Text | Print | Product List | Glossary On
Versions: 1 2 3 4 5 6 7 8 9 10 11 12 13 14 15 16 17 18 19 20 21 22 23 24 25 26 27 28 29 30 31 32 33 34 35 36 37 38 39 40 41 42 43 44 45 46 47 48 49 50
000
ASUS41 KCLE 190710
RWRCLE
OHIO REGIONAL WEATHER ROUNDUP
NATIONAL WEATHER SERVICE WILMINGTON, OH
200 AM EST FRI DEC 19 2014

NOTE: "FAIR" INDICATES FEW OR NO CLOUDS BELOW 12,000 FEET WITH NO
SIGNIFICANT WEATHER AND/OR OBSTRUCTIONS TO VISIBILITY.

OHZ001>008-015>018-024>027-034-035-043-044-190800-
   NORTHWEST OHIO

CITY           SKY/WX    TMP DP  RH WIND       PRES   REMARKS
DEFIANCE       CLOUDY    29  24  82 VRB3      30.22S
FINDLAY        CLOUDY    29  25  85 W8        30.20S WCI  21
TOLEDO EXPRESS CLOUDY    28  25  86 W6        30.20S WCI  22
TOLEDO METCALF CLOUDY    30  25  81 W8        30.21S WCI  22
LIMA           CLOUDY    30  23  75 SW7       30.20S HAZE    WCI  23
$$

OHZ009>014-019>023-028>033-038-089-190800-
   NORTHEAST OHIO

CITY           SKY/WX    TMP DP  RH WIND       PRES   REMARKS
CLE-HOPKINS    FRZ DRZL  29  27  92 SW12      30.18S FOG     WCI  19
CLE-LAKEFRONT  LGT SNOW  31  28  89 W16       30.15F FOG     WCI  20
CUY CO. ARPT   NOT AVBL
LORAIN-ELYRIA  CLOUDY    29  27  92 W8        30.18S FOG     WCI  21
ASHTABULA      CLOUDY    30  26  85 NW7       30.13S WCI  23
AKRON-CANTON   FRZ DRZL  29  26  89 W9        30.14S FOG     WCI  20
WOOSTER        CLOUDY    28  25  88 W8        30.17R FOG     WCI  20
MANSFIELD      CLOUDY    27  26  96 W7        30.16S FOG     WCI  19
YOUNGSTOWN     FRZ DRZL  29  27  92 W10       30.12S FOG     WCI  20
$$

OHZ042-051>053-060>062-070>072-077>081-190800-
  SOUTHWEST OHIO

CITY           SKY/WX    TMP DP  RH WIND       PRES   REMARKS
CINC-COVINGTON MOCLDY    28  20  71 NW5       30.22F WCI  23
CINC-LUNKEN    MOCLDY    25  21  85 CALM      30.27S
HAMILTON       PTCLDY    21  19  92 CALM      30.26S
DAYTON         CLOUDY    28  22  78 W6        30.22S WCI  22
WRIGHT-PAT AFB CLOUDY    28  22  79 W3        30.23R
DAYTON GENERAL CLOUDY    28  22  78 W5        30.22S WCI  23
WILMINGTON     CLOUDY    27  21  78 W7        30.21S WCI  19
$$

OHZ036-037-039>041-045>050-054>059-063>069-073>076-082>088-190800-
  CENTRAL AND SOUTHEAST OHIO

CITY           SKY/WX    TMP DP  RH WIND       PRES   REMARKS
COLUMBUS       CLOUDY    28  22  78 NW6       30.21S WCI  22
OSU AIRPORT    CLOUDY    28  21  75 W5        30.20F WCI  23
BOLTON FIELD   CLOUDY    28  24  86 MISG      30.21F
RICKENBACK AFB CLOUDY    28  23  80 W6        30.21F WCI  22
NEWARK         CLOUDY    29  22  75 NW8       30.20S WCI  21
MARION         CLOUDY    28  23  81 W6        30.20S HAZE    WCI  22
LANCASTER      CLOUDY    29  23  78 W3        30.21S
ZANESVILLE     CLOUDY    27  23  85 W3        30.20R
NEW PHILLY     CLOUDY    29  24  82 CALM      30.18F
$$


USA.gov is the U.S. government's official web portal to all federal, state and local government web resources and services.